Lexington Weather

Lexington, Massachusetts, USA

79°F
8/3/2020 8:37am 
  • Lexington Conditions: Few Clouds
  • Temperature: 78.8°F / 26.0°CWarmer 2.0°F than last hour.
  • Dew Point: 72.1°FDecreased 1.3°Fsince last hour.
  • Relative Humidity: 80%Decreased 9.0% since last hour.
  • Wind: Wind from SSW SSW 2 mph, 10-min avg: 3 mph, gust: 10 mph
  • Barometer: 29.86 in Steady
  • Visibility: 10 miles
  • Rain Today: 0.00 in
  •   
Southeast Middlesex County - Tropical Storm Watch - Tropical Cyclone Statement
 - SEE ALL NEARBY ALERTS -

Regional Weather Roundup
for Boston / Norton, MA

        
000
ASUS41 KBOX 311504
RWRBOX

REGIONAL WEATHER ROUNDUP
NATIONAL WEATHER SERVICE BOSTON/NORTON MA
1100 AM EDT FRI JUL 31 2020

NOTE:  "FAIR" INDICATES FEW OR NO CLOUDS BELOW 12,000 FEET WITH NO 
SIGNIFICANT WEATHER AND/OR OBSTRUCTIONS TO VISIBILITY.

MAZALL-311600-
EASTERN MASSACHUSETTS
  
CITY           SKY/WX    TMP DP  RH WIND       PRES   REMARKS
BOSTON         PTSUNNY   76  61  59 E8        29.84S                  
BEVERLY        PTSUNNY   79  62  56 E7        29.83F                  
LAWRENCE       PTSUNNY   80  63  55 E5        29.85F                  
BEDFORD        PTSUNNY   80  62  54 VRB3      29.83S                  
BLUE HILL      NOT AVBL                                               
NORWOOD        CLOUDY    80  62  54 NE6       29.83S                  
MARSHFIELD     CLOUDY    75  64  69 VRB5      29.83S                  
PLYMOUTH       CLOUDY    75  66  73 CALM      29.84F                  
TAUNTON        CLOUDY    77  65  66 CALM      29.83S                  
NEW BEDFORD    CLOUDY    74  70  87 SW5       29.83S                  
$$

MAZALL-311600-
CAPE COD AND THE ISLANDS
  
CITY           SKY/WX    TMP DP  RH WIND       PRES   REMARKS
FALMOUTH       MOSUNNY   72  70  94 S3        29.85S                  
HYANNIS        CLOUDY    75  69  81 S5        29.82F                  
CHATHAM        CLOUDY    74  70  87 CALM      29.84F                  
PROVINCETOWN   CLOUDY    74  66  76 N5        29.85S                  
NANTUCKET      LGT RAIN  74  70  87 N8        29.82F                  
MARTHAS VNYRD  CLOUDY    72  70  93 N7        29.81F                  
$$
 
MAZALL-311600-
CENTRAL AND WESTERN MASSACHUSETTS
  
CITY           SKY/WX    TMP DP  RH WIND       PRES   REMARKS
WORCESTER      PTSUNNY   79  57  46 VRB5      29.87S                  
FITCHBURG      MOSUNNY   81  60  48 CALM      29.85S                  
ORANGE         SUNNY     80  59  48 CALM      29.85F                  
SPRINGFIELD    MOSUNNY   80  63  56 NE6       29.82S                  
WESTFIELD      MOSUNNY   80  61  52 E7        29.83S                  
NORTH ADAMS    SUNNY     78  63  59 CALM      29.85F                  
PITTSFIELD     SUNNY     77  62  59 E3        29.86S                  
$$
 
RIZALL-311600-
RHODE ISLAND
  
CITY           SKY/WX    TMP DP  RH WIND       PRES   REMARKS
PROVIDENCE     CLOUDY    74  66  76 S7        29.84R                  
NEWPORT        CLOUDY    74  69  85 SE3       29.84R                  
BLOCK ISLAND   LGT RAIN  70  69  97 S3        29.85S                  
SMITHFIELD     CLOUDY    75  66  73 N3        29.85R                  
WESTERLY       LGT RAIN  71  67  87 S3        29.85R                  
$$
 
CTZALL-311600-
CONNECTICUT
  
CITY           SKY/WX    TMP DP  RH WIND       PRES   REMARKS
BRADLEY INTL   PTSUNNY   80  60  50 NE8       29.83R                  
HARTFORD       PTSUNNY   77  66  68 S3        29.83R                  
BRIDGEPORT     CLOUDY    75  69  81 NE3       29.83R                  
DANBURY        CLOUDY    73  64  73 E5        29.86R                  
GROTON         LGT RAIN  71  69  93 E5        29.83S                  
NEW HAVEN      CLOUDY    75  70  84 NE6       29.83S                  
CHESTER        NOT AVBL                                               
MERIDEN        CLOUDY    74  66  76 S3        29.84R                  
WILLIMANTIC    CLOUDY    74  67  78 S7        29.85R                  
OXFORD         CLOUDY    71  67  87 SE3       29.87S                  
$$

MEZ002-015-021-024-NHZ003-005-008-011-012-014-VTZ005-008-311600-
NORTHERN NEW ENGLAND
  
CITY           SKY/WX    TMP DP  RH WIND       PRES   REMARKS
PORTLAND ME    MOSUNNY   82  61  48 N9        29.83S                  
BANGOR ME      PTSUNNY   78  63  59 NW9       29.82S                  
CONCORD NH     SUNNY     80  60  50 N7        29.84F                  
MANCHESTER NH  MOSUNNY   82  57  42 NE7       29.82F                  
NASHUA NH      MOSUNNY   81  61  50 VRB5      29.84F                  
PORTSMOUTH NH  MOSUNNY   82  59  45 E8        29.82S                  
JAFFREY NH     SUNNY     77  56  48 VRB5      29.88S                  
KEENE NH       SUNNY     78  63  59 VRB5      29.85F                  
BURLINGTON VT  MOSUNNY   77  61  57 NE6       29.87S                  
MT. WASHINGTON PTSUNNY   54  45  71 NW5         N/A                   
$$

NYZ052-076-311600-
EASTERN NEW YORK
  
CITY           SKY/WX    TMP DP  RH WIND       PRES   REMARKS
ALBANY         MOSUNNY   74  62  66 N5        29.86S                  
NEW YORK CITY  CLOUDY    74  68  81 E6        29.82S                  
$$
 
ANZALL-311600-
MARINE OBSERVATIONS
  
STATION/POSITION TIME  TEMP    WIND        PRES    VSBY  WAVE
                       AIR SEA DIR/SP/G                  HT/PER
                 (UTC) (F)     (DEG/KT/KT) (MB)    (MI)  (FT/S)
BOSTON BUOY      1350   71 72  320/  4/  6 1009.3          1/11
BUZZARDS BAY     1400          140/  7/  8 1010.8F
NANTUCKET SOUND  1440      78  330/  6/  8 1009.3F
MASS BAY-STELLWA 1404   70      10/  6/  6 1008.1R  1 7/8  2/ 8
ISLE OF SHOALS   1400   73      CALM  /  1 1009.9R
S OF BLOCK IS    1426      76                N/A           2/ 7
$$

......................KEY.........................
  SKY/WX - SKY CONDITION/PRESENT WEATHER
  TMP    - TEMPERATURE IN FAHRENHEIT
  DWPT   - DEWPOINT IN FAHRENHEIT
  RH     - RELATIVE HUMIDITY IN PERCENT
  WIND   - DIRECTION AND SPEED IN MPH
  PRES   - MEAN SEA LEVEL PRESSURE IN INCHES OF HG
  WCI    - WIND CHILL INDEX
  VSB    - VISIBILITY IN MILES
  HX     - HEAT INDEX
  TC     - TEMPERATURE IN CELSIUS
  VRB    - VARIABLE WIND DIRECTION
  N/A    - NOT AVAILABLE
  
      

Other recent Regional Weather Roundups

Mon Aug 3, 8:04am

Mon Aug 3, 7:04am

Mon Aug 3, 6:04am

Mon Aug 3, 5:04am

Mon Aug 3, 4:04am

Mon Aug 3, 3:04am

Mon Aug 3, 2:04am

Mon Aug 3, 1:04am

Mon Aug 3, 12:05am

Sun Aug 2, 11:04pm

Sun Aug 2, 10:04pm

Sun Aug 2, 9:04pm

Sun Aug 2, 8:04pm

Sun Aug 2, 7:04pm

Sun Aug 2, 6:04pm

Sun Aug 2, 5:04pm

Sun Aug 2, 4:05pm

Sun Aug 2, 3:04pm

Sun Aug 2, 2:05pm

Sun Aug 2, 1:04pm

Sun Aug 2, 12:04pm

Sun Aug 2, 11:04am

Sun Aug 2, 10:04am

Sun Aug 2, 9:05am

Sun Aug 2, 8:05am

Sun Aug 2, 7:04am

Sun Aug 2, 6:04am

Sun Aug 2, 5:04am

Sun Aug 2, 4:05am

Sun Aug 2, 3:04am

Sun Aug 2, 2:04am

Sun Aug 2, 1:04am

Sun Aug 2, 12:05am

Sat Aug 1, 11:04pm

Sat Aug 1, 10:04pm

Sat Aug 1, 9:04pm

Sat Aug 1, 8:05pm

Sat Aug 1, 7:04pm

Sat Aug 1, 6:04pm

Sat Aug 1, 5:05pm

Sat Aug 1, 4:05pm

Sat Aug 1, 3:04pm

Sat Aug 1, 2:04pm

Sat Aug 1, 1:04pm

Sat Aug 1, 12:04pm

Sat Aug 1, 11:05am

Sat Aug 1, 10:05am

Sat Aug 1, 9:04am

Sat Aug 1, 8:04am

Sat Aug 1, 7:04am

Sat Aug 1, 6:04am

Sat Aug 1, 5:04am

Sat Aug 1, 4:05am

Sat Aug 1, 3:04am

Sat Aug 1, 2:04am

Sat Aug 1, 1:04am

Sat Aug 1, 12:05am

Fri Jul 31, 11:05pm

Fri Jul 31, 10:04pm

Fri Jul 31, 9:04pm

Fri Jul 31, 8:05pm

Fri Jul 31, 7:05pm

Fri Jul 31, 6:04pm

Fri Jul 31, 5:04pm

Fri Jul 31, 4:05pm

Fri Jul 31, 3:04pm

Fri Jul 31, 2:05pm

Fri Jul 31, 1:04pm

Fri Jul 31, 12:04pm

Fri Jul 31, 10:04am

Fri Jul 31, 9:04am

Fri Jul 31, 8:04am

Fri Jul 31, 7:04am

Fri Jul 31, 6:04am

Fri Jul 31, 5:04am

Fri Jul 31, 4:04am

Fri Jul 31, 3:04am

Fri Jul 31, 2:04am

Fri Jul 31, 1:05am

Fri Jul 31, 12:04am

Thu Jul 30, 11:04pm

Thu Jul 30, 10:04pm

Thu Jul 30, 9:04pm

Thu Jul 30, 8:04pm

Thu Jul 30, 7:05pm

Thu Jul 30, 6:04pm

Thu Jul 30, 5:04pm

Thu Jul 30, 4:05pm

Thu Jul 30, 3:04pm

Thu Jul 30, 2:05pm

Thu Jul 30, 1:04pm

Thu Jul 30, 12:04pm

Thu Jul 30, 11:04am

Thu Jul 30, 10:05am

Thu Jul 30, 9:04am

Thu Jul 30, 8:04am

Thu Jul 30, 7:04am

Thu Jul 30, 6:04am

Thu Jul 30, 5:04am

Thu Jul 30, 4:04am

Thu Jul 30, 3:04am

Thu Jul 30, 2:04am

Thu Jul 30, 1:04am

Thu Jul 30, 12:04am

Wed Jul 29, 11:04pm

Wed Jul 29, 10:04pm

Wed Jul 29, 9:04pm

Wed Jul 29, 8:04pm

Wed Jul 29, 7:05pm

Wed Jul 29, 6:05pm

Wed Jul 29, 5:04pm

Wed Jul 29, 4:04pm

Wed Jul 29, 3:04pm

Wed Jul 29, 2:04pm

Wed Jul 29, 1:05pm

Wed Jul 29, 12:05pm

Wed Jul 29, 11:04am

Wed Jul 29, 10:04am

Wed Jul 29, 9:04am

Wed Jul 29, 8:04am

Wed Jul 29, 7:04am

Wed Jul 29, 6:04am

Wed Jul 29, 5:04am

Wed Jul 29, 4:04am

Wed Jul 29, 3:04am

Wed Jul 29, 2:04am

Wed Jul 29, 1:04am

Wed Jul 29, 12:05am

Tue Jul 28, 11:05pm

Tue Jul 28, 10:05pm

Tue Jul 28, 9:04pm

Tue Jul 28, 8:04pm

Tue Jul 28, 7:04pm

Tue Jul 28, 6:04pm

Tue Jul 28, 5:04pm

Tue Jul 28, 4:05pm

Tue Jul 28, 3:05pm

Tue Jul 28, 2:04pm

Tue Jul 28, 1:05pm

Tue Jul 28, 12:04pm

Tue Jul 28, 11:04am

Tue Jul 28, 10:04am

Tue Jul 28, 9:04am

Tue Jul 28, 8:04am

Tue Jul 28, 7:04am

Tue Jul 28, 6:04am

Tue Jul 28, 5:04am

Tue Jul 28, 4:04am

Tue Jul 28, 3:04am

Tue Jul 28, 2:04am

Tue Jul 28, 1:04am

Tue Jul 28, 12:05am

Mon Jul 27, 11:04pm

Mon Jul 27, 10:05pm

Mon Jul 27, 9:05pm

Mon Jul 27, 8:04pm

Mon Jul 27, 7:04pm

Mon Jul 27, 6:05pm

Mon Jul 27, 5:05pm

Mon Jul 27, 4:04pm

Mon Jul 27, 3:04pm

Mon Jul 27, 2:04pm

Mon Jul 27, 1:04pm

Mon Jul 27, 12:04pm

Mon Jul 27, 11:04am

Mon Jul 27, 10:04am

Mon Jul 27, 9:04am

Meta data:

ID: 921124e7-1a4d-48d9-91cc-8eab54bf8e35
Link: https://api.weather.gov/products/921124e7-1a4d-48d9-91cc-8eab54bf8e35